RH
59 57 58 60 60 60 66 69 67 66 67 64 63 67 70 70 66 66 70 69 62 57 52 44 37 37 47 57 61 63 62 61 63 67 69 71 73 75 76 75 74 74 73 74 74 72 72 72 71 71 70 69 70 70 71 71 72 75 78 79 82 81 78 79 81 80 85 84 65 54 62 77 90 98 99 100 101 99 100 101 99 100 100 99 100
59 57 55 56 60 65 70 74 74 75 75 69 65 68 74 74 69 66 72 74 67 61 56 49 44 42 49 60 66 66 65 65 66 69 72 76 78 79 78 77 76 77 78 79 80 78 76 77 79 79 75 71 73 75 75 79 81 80 82 85 85 85 81 80 81 81 87 93 81 64 63 72 81 90 96 100 99 98 100 100 99 100 100 99 100
56 56 57 58 64 71 76 77 79 83 82 72 65 69 76 77 72 67 72 77 72 65 60 55 49 47 53 65 70 68 68 68 68 71 75 79 82 81 80 79 79 79 78 77 82 86 86 87 86 82 79 75 74 75 77 84 90 91 93 92 86 87 89 88 88 91 93 96 90 73 66 71 76 80 89 97 100 100 100 99 99 98 99 100 100
53 54 58 63 70 77 81 80 83 89 85 71 66 71 78 80 75 69 73 78 76 69 64 60 54 51 58 69 73 71 71 71 71 73 76 80 84 83 84 86 83 81 82 79 82 90 95 96 91 82 79 79 77 76 77 80 85 90 92 89 84 88 95 94 91 92 91 92 91 79 69 70 73 74 80 90 98 101 98 96 97 96 96 97 98
55 57 62 71 79 85 87 85 87 92 85 71 68 75 82 84 78 73 74 79 79 74 68 64 58 54 61 72 76 76 75 74 73 75 76 80 83 85 89 92 89 89 91 87 86 93 98 100 95 86 80 79 80 79 78 78 80 81 81 82 84 90 96 95 92 90 87 87 87 82 76 75 72 72 76 80 88 98 99 96 97 95 94 95 94
63 64 71 80 86 89 91 87 88 90 81 70 70 78 86 87 81 76 76 79 81 79 73 68 61 56 63 75 80 81 79 77 78 77 77 81 87 91 95 96 95 97 97 91 90 96 101 101 96 88 82 79 81 81 80 80 79 77 77 81 86 92 96 97 96 93 90 87 83 80 80 81 75 70 72 73 75 88 97 96 97 96 91 91 91
70 73 81 90 92 93 94 92 90 88 79 70 71 81 90 91 84 79 78 80 83 82 76 70 62 58 65 77 83 84 82 80 80 77 77 86 95 98 98 99 99 99 96 93 95 96 96 97 92 87 83 81 82 84 82 79 79 82 87 89 91 95 97 98 99 99 98 94 89 83 80 83 81 75 75 75 71 81 94 96 97 98 93 89 88
78 84 92 97 98 98 98 97 94 92 87 77 73 82 94 95 88 82 81 82 84 83 78 71 64 61 69 81 87 87 84 81 80 80 82 90 98 98 99 102 101 96 93 94 96 92 87 88 87 85 84 83 85 86 82 82 88 93 94 93 94 98 99 99 101 101 101 100 97 91 82 79 81 78 78 79 75 80 92 96 95 96 93 89 87
88 94 99 100 100 99 97 96 95 96 96 86 76 82 96 99 93 86 83 83 85 85 80 73 66 63 72 85 90 88 85 82 81 84 88 90 95 98 100 100 96 91 90 91 92 89 83 82 84 85 85 85 88 87 87 93 99 98 96 96 97 99 99 100 102 101 101 100 99 96 87 79 80 79 75 78 79 78 84 93 96 95 92 92 94
96 100 101 97 97 98 97 97 97 98 100 92 78 81 96 102 98 91 85 85 87 86 82 76 68 66 76 88 93 89 86 83 82 84 89 90 92 93 92 92 90 89 89 90 90 87 82 81 84 86 87 90 92 91 93 99 101 99 99 99 98 99 100 100 100 100 101 101 100 98 91 83 81 79 72 71 75 77 83 93 100 99 97 96 95
99 97 94 89 90 97 99 98 99 99 101 95 80 79 95 102 100 96 90 87 88 87 83 78 69 68 78 90 94 91 86 83 81 83 88 92 95 92 86 86 88 88 88 89 90 88 84 83 85 87 89 92 93 93 96 99 100 100 100 99 95 94 96 98 97 94 94 99 100 99 97 91 86 83 76 71 72 76 83 91 95 98 99 98 93
90 87 88 89 93 98 99 99 100 99 101 100 85 79 93 102 100 99 94 88 89 87 83 79 72 70 81 91 94 92 86 82 82 84 86 92 99 98 92 90 91 91 92 91 89 88 86 86 87 88 90 92 92 94 98 100 99 97 96 96 93 89 89 92 94 90 89 92 95 97 98 96 91 88 84 79 78 78 80 85 91 96 98 97 95
84 85 92 98 99 99 99 100 102 99 99 100 89 78 90 101 100 101 99 91 90 90 84 80 76 74 83 92 94 91 86 83 84 86 87 91 98 101 98 97 97 96 97 97 94 92 90 92 93 90 89 93 96 97 99 100 98 96 97 99 99 97 93 91 91 92 93 96 98 98 99 98 96 93 87 84 85 84 83 86 90 94 97 97 97
88 93 97 99 99 99 100 100 101 99 96 99 93 80 84 99 101 100 101 97 92 90 86 82 79 78 84 93 96 92 87 84 85 88 90 93 98 101 100 100 100 99 98 99 100 98 96 97 97 91 91 98 100 99 99 99 97 94 95 96 97 99 99 96 96 97 98 101 100 97 98 100 100 99 95 92 88 83 83 91 96 97 96 95 94
95 100 99 99 99 99 99 99 99 98 93 96 99 88 80 92 102 100 101 100 94 90 88 85 82 82 87 95 97 92 87 86 87 88 90 91 95 100 101 99 100 100 99 100 101 101 100 100 99 95 96 100 102 99 97 95 92 91 91 89 89 93 95 95 99 100 100 102 96 90 92 97 99 102 101 99 95 81 73 78 84 86 86 83 79
101 100 98 100 98 96 97 96 95 99 98 95 99 94 84 90 101 100 100 102 97 92 89 87 84 84 91 98 98 93 89 88 89 90 91 91 93 99 101 100 100 100 100 100 100 100 101 101 100 100 100 101 101 100 95 89 88 94 96 92 90 92 91 92 98 100 100 100 93 85 87 91 95 99 98 98 99 89 78 71 64 63 66 66 66
98 99 98 98 94 89 90 87 83 92 100 97 97 97 93 96 101 100 100 102 100 96 91 87 84 87 95 100 99 95 90 88 89 91 93 93 95 99 101 100 100 100 100 100 100 100 100 101 100 100 100 101 101 101 98 93 91 94 98 97 95 94 91 94 100 101 100 99 95 93 93 92 95 98 98 98 97 95 95 86 68 61 62 59 60
100 101 98 94 88 82 83 85 85 92 100 100 100 100 99 100 101 100 100 101 101 100 95 89 87 91 99 102 99 95 91 88 89 91 93 94 96 100 101 100 100 100 100 100 100 100 100 100 100 101 101 101 100 100 101 100 96 95 95 95 95 90 87 92 97 98 98 97 95 97 99 97 97 99 100 101 98 99 100 88 75 79 83 72 65
97 93 88 83 81 80 84 92 97 100 101 100 100 100 100 101 100 100 100 100 102 102 97 93 92 96 101 102 99 96 91 87 88 91 93 93 95 99 101 100 100 100 100 100 100 100 99 98 99 100 101 100 100 100 100 100 100 97 94 94 93 86 83 89 95 97 99 96 93 95 97 99 101 100 99 99 100 101 99 88 86 94 97 89 83
83 83 81 80 81 84 89 95 100 102 101 99 100 100 100 100 100 100 100 100 102 103 99 95 96 99 102 101 98 95 90 87 87 90 92 93 96 100 101 99 100 100 100 100 100 100 100 99 99 100 101 100 100 100 99 100 101 99 97 98 93 81 80 90 96 98 99 98 97 98 97 98 100 101 101 100 99 100 99 96 97 98 98 100 99
81 84 84 83 83 85 87 91 98 102 101 99 100 100 100 100 100 100 100 100 101 102 100 99 99 101 101 101 98 93 89 87 87 90 92 94 97 101 100 99 100 100 100 101 100 99 100 101 100 100 100 100 100 100 100 100 100 99 99 99 92 84 88 95 97 97 95 92 94 98 98 97 95 95 96 96 95 96 97 98 99 98 99 102 101
85 87 86 83 83 87 88 89 96 102 101 99 100 100 100 100 100 100 100 100 101 103 102 101 100 101 102 102 97 91 89 89 89 91 94 96 100 101 100 100 100 99 100 101 99 97 98 100 100 100 100 100 100 100 100 100 99 100 100 97 91 89 94 97 96 96 94 87 87 90 91 92 92 90 90 88 86 87 92 96 99 98 95 93 95
87 90 90 86 87 91 91 91 97 102 100 99 101 101 101 100 100 100 100 100 101 103 103 101 100 101 102 101 96 91 90 90 91 92 96 98 101 101 100 100 100 100 100 100 99 99 100 101 100 100 100 101 100 100 101 100 100 101 100 99 96 94 97 99 100 100 98 93 91 89 87 88 90 90 91 89 86 86 90 96 100 100 95 88 87
91 91 90 90 90 91 91 93 98 101 100 100 101 102 101 100 100 100 100 100 100 101 101 100 100 101 102 100 96 93 92 92 93 96 99 100 101 101 100 100 100 100 100 99 100 100 100 100 100 100 100 101 101 101 101 100 100 100 100 100 100 99 99 100 100 99 100 100 99 96 94 92 89 88 90 92 91 90 93 98 100 101 101 96 92
93 92 91 91 90 90 92 96 100 100 100 100 101 101 101 100 100 100 100 100 100 100 100 101 100 101 102 99 96 95 95 96 97 99 100 102 102 101 101 100 100 100 100 99 99 100 100 100 100 100 100 100 100 100 100 100 100 101 100 100 100 100 100 101 101 100 99 99 100 100 100 99 95 88 82 83 88 92 96 99 100 99 101 100 99
93 92 91 90 89 90 94 99 101 100 100 100 101 101 101 100 100 100 100 100 100 100 100 100 100 101 102 99 97 98 99 99 100 101 102 102 102 102 100 100 100 100 100 99 100 100 100 100 100 100 100 100 101 100 100 100 100 99 99 100 100 100 99 98 97 95 91 91 96 100 100 100 100 93 85 85 91 94 96 99 100 99 100 101 100
95 92 90 92 93 94 99 101 100 99 100 100 100 100 100 100 100 100 100 100 101 101 100 100 102 103 102 100 100 100 100 100 101 102 101 101 100 100 100 100 100 100 100 100 100 100 100 100 100 100 101 100 100 100 99 99 101 100 100 100 100 100 99 96 93 93 91 92 97 100 100 100 101 99 96 96 98 96 94 97 96 94 95 97 99
98 92 92 98 99 99 101 101 99 100 101 100 100 100 100 100 100 100 100 100 100 101 100 100 102 103 102 102 102 101 100 100 102 102 102 101 101 101 101 100 100 100 100 100 100 100 100 100 100 100 100 100 100 100 98 98 99 99 98 97 95 95 96 95 95 96 98 99 99 99 100 99 99 100 100 100 100 99 97 97 96 94 94 93 92
100 96 97 101 101 100 101 100 100 100 100 100 100 100 100 101 101 100 100 100 100 100 100 100 100 101 101 101 101 100 100 100 101 101 101 100 99 98 98 98 98 99 99 100 101 100 100 100 101 100 100 100 100 100 99 99 99 98 96 96 97 96 96 96 96 96 98 99 100 100 101 101 100 101 101 100 100 101 100 99 99 99 99 97 92
101 100 101 102 101 99 100 100 100 100 100 100 101 100 99 101 102 101 100 99 100 100 100 100 100 100 99 99 99 99 101 101 101 101 100 98 94 90 89 91 93 94 94 96 100 101 100 101 101 101 100 100 101 101 101 101 100 98 96 96 98 98 97 97 96 95 93 92 92 93 94 94 94 96 98 98 98 99 100 100 100 100 100 101 97
101 100 102 102 100 99 100 100 100 100 100 100 100 100 100 100 101 101 101 100 100 100 100 101 101 101 100 99 98 99 99 97 98 100 100 99 97 94 94 94 95 97 97 97 99 101 100 100 101 101 101 101 101 100 99 97 96 95 93 91 91 91 93 94 93 91 89 89 88 87 86 88 91 94 96 96 97 99 100 100 100 100 100 100 98
100 100 102 101 100 100 100 100 100 100 100 100 100 100 100 100 100 101 101 100 100 100 101 101 101 100 100 100 100 100 97 93 95 99 101 100 100 100 99 98 98 100 101 100 100 100 100 100 100 100 100 99 96 96 96 96 95 95 94 94 94 95 95 96 95 94 95 97 97 96 96 97 98 99 99 99 100 100 100 100 100 100 100 100 99
98 101 101 100 100 100 100 100 100 100 100 100 100 100 100 100 100 100 100 101 101 100 101 101 100 99 100 100 101 101 98 96 98 101 100 99 100 100 100 99 99 99 100 99 99 100 100 100 100 100 99 98 97 97 98 97 97 98 98 98 99 99 98 97 98 99 100 101 100 100 101 101 100 100 100 100 100 100 100 100 100 100 100 100 100
97 101 101 100 100 100 100 100 100 100 100 100 100 100 100 100 100 100 100 100 100 100 100 101 100 100 100 100 100 100 99 99 100 100 100 100 100 101 100 100 99 99 99 99 100 100 100 100 100 100 100 100 100 100 99 99 99 101 101 101 101 100 99 99 101 102 102 102 101 100 100 100 100 100 100 100 100 100 100 100 100 100 100 100 100
98 102 101 100 100 100 100 100 100 100 101 100 100 100 100 100 100 100 100 100 101 101 100 100 100 100 100 100 100 99 99 100 99 99 100 98 96 95 96 99 100 99 97 98 99 99 99 99 99 100 101 101 102 101 101 102 103 102 101 102 102 101 99 98 98 97 97 100 101 101 100 100 100 101 101 101 102 101 100 100 100 100 100 100 100
101 104 102 100 101 100 100 100 100 100 100 100 100 100 100 100 100 100 100 100 100 100 100 100 100 100 100 100 100 99 100 101 100 99 99 96 92 93 98 101 101 98 95 95 97 98 98 99 99 101 102 102 103 104 103 103 103 103 102 102 101 99 97 96 95 95 97 99 100 100 101 100 101 101 101 101 101 100 100 101 100 100 101 100 97
103 104 101 100 101 100 100 100 100 100 100 100 100 100 100 101 100 100 100 101 100 100 100 99 99 100 100 100 100 100 100 101 100 100 100 97 96 99 102 102 101 99 96 95 95 97 98 99 100 101 101 101 102 104 104 103 104 103 102 100 99 97 97 97 97 99 101 101 101 101 101 101 101 101 101 101 100 100 100 100 100 100 101 101 97
102 102 101 100 100 100 100 100 100 101 100 100 101 101 100 101 101 100 100 100 100 100 101 99 99 101 100 98 98 100 100 100 100 100 100 99 98 99 101 101 100 100 98 95 94 96 100 101 100 100 101 101 103 104 104 104 103 102 101 100 99 98 98 99 100 101 101 101 101 101 101 102 102 102 102 101 101 101 101 101 100 99 99 99 98
101 101 101 101 100 100 101 100 100 101 101 101 103 103 101 101 102 101 101 102 101 100 101 100 100 101 99 96 96 98 99 100 100 99 97 96 97 99 100 100 100 100 98 96 95 97 99 100 101 101 102 102 103 104 104 103 103 103 102 101 99 99 99 99 100 101 101 101 101 100 100 101 102 102 102 102 101 101 101 101 101 100 99 99 98
101 102 102 101 100 101 101 100 100 100 101 101 102 102 101 100 101 101 101 102 102 100 101 101 100 100 101 100 100 100 100 99 98 96 93 94 97 100 100 100 101 101 100 97 96 95 95 96 98 100 101 102 102 103 103 102 102 103 103 103 102 102 101 101 101 101 102 101 101 101 101 101 101 102 103 103 102 102 102 101 100 100 101 101 100
100 103 102 100 101 101 100 101 101 100 100 100 100 100 100 100 101 101 100 100 100 100 101 101 101 101 103 103 103 103 102 100 98 96 94 95 97 97 97 99 101 101 100 99 98 96 96 96 96 98 99 100 102 102 103 103 103 103 103 103 103 102 101 101 101 101 101 101 101 100 100 100 100 100 101 101 102 102 102 102 101 100 100 100 99
100 105 102 101 102 100 99 101 101 100 100 101 100 100 101 100 101 102 101 100 100 100 100 101 102 103 104 102 101 102 102 102 100 98 97 96 95 95 97 100 102 102 102 101 100 99 99 99 99 99 100 100 101 102 104 104 104 104 104 103 103 103 102 101 101 101 101 101 100 100 100 100 100 100 101 101 102 102 103 103 102 101 100 100 99
101 104 102 102 103 100 99 101 100 99 101 101 100 100 101 100 100 101 102 102 101 100 100 101 101 102 103 103 102 102 103 102 102 101 99 98 96 97 99 100 100 101 102 102 102 102 102 102 101 101 101 102 101 102 102 102 103 104 104 103 103 103 103 102 101 101 101 101 100 100 100 100 100 100 100 100 101 102 102 103 102 102 101 101 100
100 101 99 100 100 100 100 101 100 100 101 100 100 101 101 100 100 101 101 102 102 100 100 101 100 101 103 104 103 104 103 103 103 102 101 101 101 100 100 99 98 99 99 99 100 102 102 102 104 104 103 104 103 102 102 103 103 103 103 103 103 104 104 104 103 103 102 102 100 100 100 101 101 101 100 100 101 101 101 100 101 101 101 101 101
98 99 99 98 98 99 100 100 100 101 100 99 100 101 100 101 101 100 100 102 102 100 100 101 100 100 101 102 102 104 103 103 103 101 100 101 101 101 101 101 100 100 99 98 99 99 98 99 100 101 102 103 103 103 103 102 102 102 103 103 103 104 104 104 104 103 103 102 102 101 101 101 102 102 101 101 101 101 101 101 100 100 100 101 102
100 101 102 101 99 99 100 100 100 100 100 100 100 100 99 100 101 100 100 102 102 101 101 100 100 100 100 100 101 102 101 101 102 100 98 98 99 100 101 101 100 101 101 100 100 101 100 99 99 98 98 99 100 101 102 101 100 100 101 102 103 105 106 105 105 104 104 103 103 103 103 102 102 103 102 102 101 101 100 100 101 100 101 102 103
99 101 102 104 103 100 100 101 100 100 100 100 100 100 100 100 100 100 101 101 101 101 100 100 100 101 101 100 100 100 100 100 101 100 99 99 99 100 100 101 100 100 101 100 100 101 102 102 102 102 102 102 102 102 102 100 99 98 98 99 100 100 101 102 102 102 102 102 102 102 102 102 102 102 101 100 100 99 97 97 97 97 96 96 98
98 99 100 103 104 102 102 101 100 100 101 100 100 100 100 100 100 100 100 100 100 100 100 100 101 102 102 102 101 100 100 100 100 100 101 101 100 100 100 100 101 101 101 101 101 101 100 101 101 102 103 105 106 106 106 105 104 104 102 101 100 99 98 98 97 97 97 98 98 99 100 100 100 100 100 99 98 98 96 95 94 93 91 90 89
96 98 99 100 102 102 102 102 101 101 101 100 100 101 100 100 101 101 100 100 100 100 100 100 101 101 102 102 102 102 102 101 100 101 102 101 101 102 102 101 101 101 101 101 102 102 102 102 102 101 101 102 103 104 105 105 105 105 105 104 104 103 102 100 98 96 94 93 93 93 94 95 95 96 96 97 97 97 96 95 94 92 90 88 85
95 97 99 101 102 102 101 100 101 102 101 100 100 100 100 100 101 101 101 101 101 100 100 100 100 100 100 101 101 101 102 101 100 101 102 101 101 102 102 103 104 103 102 101 101 102 103 103 102 101 101 101 102 103 105 105 105 106 106 106 106 105 105 103 102 100 97 95 93 92 91 90 91 91 91 92 93 94 94 94 93 92 90 89 86
97 98 100 101 103 104 101 100 101 103 103 102 101 100 100 100 100 101 102 102 102 102 102 101 100 100 100 100 100 100 100 100 100 101 101 101 101 101 101 102 103 103 103 103 104 104 105 104 103 102 101 100 100 101 102 105 106 105 104 105 106 105 104 104 103 101 100 99 98 96 94 92 90 89 88 87 87 88 89 90 91 91 90 89 88
Wind_Speed
40 40 41 39 38 38 36 35 40 43 43 43 45 45 42 40 40 41 43 43 44 43 42 41 38 35 32 29 27 25 25 25 24 24 24 24 25 25 25 26 28 28 27 26 26 26 26 26 25 24 22 22 22 22 21 20 21 21 20 18 16 15 13 14 17 19 16 15 18 21 19 19 17 11 8 9 11 9 7 8 10 12 13 13 14
41 42 43 43 42 37 33 32 37 44 46 46 47 46 43 40 38 39 40 41 42 42 42 40 38 35 32 29 27 25 24 24 24 23 23 23 24 25 26 27 27 27 26 25 25 26 25 25 24 22 22 24 24 23 21 19 17 17 17 15 14 13 13 14 16 17 17 14 15 18 18 18 20 17 11 7 8 8 7 9 12 13 14 14 14
43 43 43 46 43 35 31 31 35 44 48 48 49 48 43 38 36 37 38 38 39 40 41 40 38 34 31 29 28 26 25 24 24 23 23 23 25 27 27 28 29 28 28 28 26 24 22 21 23 23 22 24 24 23 22 19 15 13 13 14 14 12 11 12 14 15 15 14 14 17 18 17 18 21 16 8 5 7 9 10 11 12 13 13 13
45 44 43 44 41 36 33 30 33 42 47 47 48 48 44 38 34 35 36 35 37 39 39 39 37 34 31 30 28 27 26 25 24 24 24 24 25 26 26 27 29 28 27 28 26 22 20 21 24 24 23 25 25 23 22 21 18 15 13 13 13 12 10 11 13 14 15 14 14 15 17 17 17 19 21 14 6 5 8 9 11 13 13 12 12
43 42 40 40 40 38 32 28 32 42 46 46 46 46 43 37 33 33 34 33 35 36 38 39 37 34 31 29 28 27 25 25 24 25 25 25 26 26 24 23 24 21 21 24 25 23 23 24 26 25 24 25 25 23 22 21 20 17 14 12 11 10 8 10 11 13 15 16 15 15 17 18 17 16 20 20 13 7 6 8 10 12 13 12 12
40 39 36 36 38 36 30 26 30 41 48 49 47 44 41 36 32 32 32 32 33 34 36 38 36 34 31 29 28 26 25 24 24 24 26 25 23 22 20 19 19 18 20 24 25 25 26 28 28 26 25 25 24 22 21 20 19 17 15 13 11 10 9 10 10 11 13 15 16 16 16 16 16 15 16 20 20 14 8 6 8 11 13 13 13
38 36 35 35 32 29 28 27 28 37 49 53 49 44 39 34 31 31 30 31 32 33 35 36 35 33 30 28 27 26 25 24 24 25 25 21 17 17 19 20 20 21 23 25 27 29 30 31 30 28 26 25 23 21 20 19 17 16 14 13 13 13 14 14 14 13 13 13 14 15 16 15 14 13 12 16 19 17 11 6 6 7 9 11 12
36 36 35 32 25 24 27 27 25 31 43 52 50 44 39 34 30 30 30 30 30 32 33 35 35 33 30 28 27 26 25 25 24 24 22 19 17 19 22 24 24 25 26 26 28 30 30 31 31 29 27 25 22 20 19 17 17 16 15 14 15 16 17 17 17 17 14 12 12 13 14 14 14 12 11 12 16 18 13 5 5 6 7 8 9
37 36 33 28 27 30 31 27 24 25 31 45 51 46 40 35 30 30 30 29 30 31 32 33 34 33 30 28 27 26 25 25 24 21 20 20 21 23 25 27 27 27 27 27 28 29 29 30 30 29 27 24 21 20 18 17 17 16 15 16 17 17 18 17 18 18 15 12 12 12 12 13 13 12 11 10 13 17 14 8 9 9 8 9 8
35 32 30 31 36 37 31 26 24 21 25 41 51 48 41 36 30 30 29 29 30 30 31 33 34 33 30 28 28 27 26 25 23 21 21 23 25 27 28 28 27 27 26 27 27 28 28 29 30 28 26 24 22 21 19 18 18 18 17 18 19 18 18 17 17 17 15 12 11 11 12 13 13 12 12 11 10 12 14 13 12 9 6 7 9
33 34 37 42 43 36 29 28 28 24 29 43 52 49 42 36 31 29 29 29 30 31 31 33 33 32 30 28 28 27 26 25 24 22 23 23 24 27 28 26 26 26 26 26 26 26 27 28 28 27 27 26 25 22 20 20 20 20 20 20 19 17 17 17 17 16 14 13 12 11 11 13 14 13 12 12 10 11 13 13 10 9 7 7 8
41 44 44 43 40 35 33 35 32 27 32 43 50 50 43 36 32 29 28 29 30 30 31 32 33 32 30 28 28 27 27 26 24 23 23 22 22 25 27 25 24 24 24 25 26 26 27 27 27 27 28 27 25 23 22 21 21 20 19 18 17 17 15 14 14 14 13 13 13 12 12 12 13 14 14 13 12 11 12 12 10 10 9 7 6
48 46 41 37 37 36 36 34 31 31 35 41 48 51 44 36 34 30 28 29 29 30 31 31 32 31 30 29 28 28 27 25 24 23 23 21 21 22 25 26 25 24 23 23 24 25 26 26 26 27 27 26 24 24 23 22 20 18 17 17 19 20 18 15 12 11 13 14 16 16 15 13 13 14 14 14 14 14 14 13 11 10 9 8 7
46 41 37 34 33 32 31 30 33 40 44 44 48 52 46 37 34 31 28 29 29 30 31 31 31 31 30 29 28 27 26 24 23 22 22 21 21 21 24 26 28 28 25 23 23 24 25 25 26 26 25 24 24 24 23 22 19 17 17 19 21 21 22 20 18 16 16 17 18 17 16 16 17 15 12 13 15 18 19 17 14 13 12 12 11
38 33 30 29 28 29 33 38 44 50 51 47 47 52 49 39 33 30 29 29 29 29 29 30 31 31 30 29 28 27 25 22 21 21 21 21 21 22 24 25 27 28 28 24 23 22 23 24 25 25 23 24 24 23 22 21 17 14 15 18 18 18 19 20 20 21 21 21 18 15 12 13 14 14 12 12 13 16 20 22 22 21 20 19 19
30 29 28 30 33 37 42 48 52 52 53 50 48 49 47 38 30 29 29 28 28 28 29 29 30 30 30 29 28 26 24 21 20 20 21 20 21 22 24 25 25 26 25 24 22 21 22 22 23 23 23 25 24 21 20 20 15 12 13 15 16 16 16 16 16 18 20 21 18 15 12 11 10 10 10 10 12 13 15 20 24 26 27 27 27
30 33 37 41 45 49 52 56 58 54 51 50 46 43 39 33 28 27 27 27 27 28 29 29 29 30 29 29 27 25 23 21 20 20 21 20 21 22 23 24 25 25 24 22 20 20 21 22 22 22 23 25 24 20 19 19 15 12 12 12 14 16 16 17 17 17 18 18 17 16 15 13 11 10 9 8 9 11 12 15 18 21 24 27 28
38 44 50 54 56 58 56 54 53 49 45 43 39 35 33 29 26 26 26 25 25 27 28 28 29 29 29 28 26 24 23 21 20 20 20 20 21 23 23 23 24 24 24 23 23 23 24 25 24 23 24 25 23 19 18 19 18 15 13 13 14 15 14 13 14 15 15 15 16 17 17 17 16 16 16 14 11 11 12 13 12 13 17 20 23
50 54 57 58 56 54 50 45 44 42 39 37 33 30 31 29 24 24 25 24 24 26 27 28 29 29 29 27 24 23 23 22 21 21 20 20 22 23 23 23 23 22 21 21 23 24 25 24 24 24 24 23 20 18 19 20 20 18 16 15 15 13 10 9 9 9 10 11 12 14 15 16 17 19 20 19 16 15 16 14 11 11 13 14 15
57 57 55 53 50 47 44 41 40 39 36 34 31 28 29 28 24 23 23 23 23 24 25 27 28 28 28 26 23 22 22 22 21 20 19 20 22 22 22 23 23 21 19 19 19 20 20 21 22 23 23 22 19 19 20 19 19 19 18 18 17 13 9 9 9 10 10 11 11 13 14 14 15 17 17 18 17 18 19 19 17 17 17 16 14
56 53 51 49 47 45 42 39 38 35 32 31 29 27 28 27 23 22 22 22 22 23 24 25 27 27 26 24 23 22 22 22 21 19 18 20 22 21 21 23 22 19 18 18 18 18 19 19 20 21 22 22 20 19 19 19 19 19 19 19 18 15 14 14 14 14 15 15 14 15 16 16 16 16 16 16 17 17 19 20 21 21 22 23 22
52 51 49 47 46 44 42 39 36 32 28 28 29 28 25 23 22 22 22 22 22 22 23 24 25 26 25 23 22 22 21 21 21 18 17 20 22 22 21 21 20 18 17 17 17 17 17 18 18 18 20 21 20 19 19 18 18 19 20 20 19 18 18 19 18 18 19 20 19 18 18 18 17 17 17 17 17 17 18 20 22 23 23 23 23
49 49 48 47 45 43 40 36 31 28 26 27 29 27 22 21 21 21 21 21 22 22 22 24 25 25 24 22 21 21 21 20 19 16 17 20 22 23 21 20 19 18 17 17 17 16 16 16 16 16 16 18 19 19 19 18 19 20 21 21 21 21 21 21 20 19 19 21 21 20 19 19 19 19 18 18 17 17 17 18 19 21 22 21 21
48 49 48 46 44 41 37 32 29 26 25 27 29 26 21 20 20 21 21 21 21 22 22 23 24 23 22 20 20 20 20 18 16 15 15 18 21 24 23 19 19 19 17 16 16 16 16 16 15 14 14 16 17 17 18 18 19 21 22 22 23 23 23 22 21 19 18 18 19 20 20 20 20 19 18 17 16 16 16 17 17 17 18 19 19
49 48 47 45 42 38 35 32 28 26 25 27 29 26 22 20 19 20 21 20 20 21 22 23 23 21 20 19 19 19 17 15 14 12 14 16 19 23 24 20 18 18 19 19 18 17 15 15 14 13 13 14 14 15 16 17 20 22 22 22 21 20 20 20 19 18 17 17 16 17 18 19 19 19 17 15 15 15 16 16 15 14 14 16 18
49 48 47 44 40 37 36 33 30 27 26 27 29 26 21 21 20 20 21 20 20 21 21 21 21 20 18 18 18 16 14 13 11 10 12 14 14 16 19 19 17 18 20 20 19 17 14 12 12 13 13 14 14 15 17 19 21 24 24 23 22 20 19 20 19 19 19 19 17 16 16 16 17 18 18 17 17 17 17 16 15 14 14 14 16
49 47 46 44 41 38 36 33 32 28 25 26 30 27 22 21 20 19 21 21 19 20 20 20 19 18 17 17 15 13 12 10 8 9 11 14 14 14 17 19 19 20 19 16 13 14 13 13 14 16 16 16 17 17 18 20 21 22 23 23 22 21 20 20 20 19 19 20 20 20 16 12 11 12 14 15 16 18 18 17 17 17 16 16 16
47 46 45 43 40 37 34 33 32 29 24 26 30 27 23 22 20 19 19 20 19 20 19 17 17 16 16 14 12 10 9 7 7 8 10 14 16 17 19 20 20 20 19 15 12 13 13 14 16 18 18 18 18 18 20 22 23 23 23 23 23 23 22 22 22 22 22 21 21 22 20 17 14 12 11 11 12 14 15 16 17 18 18 19 20
46 44 44 41 38 36 34 33 32 29 25 26 29 27 22 21 20 18 18 18 18 18 17 16 15 14 13 11 8 6 5 6 7 8 10 12 14 15 17 19 19 20 21 18 15 15 15 16 17 18 19 20 20 20 20 21 23 24 24 24 23 23 24 24 24 25 25 24 23 23 22 21 19 18 16 15 14 15 16 17 19 20 19 20 22
45 44 42 39 37 36 34 33 31 28 24 25 28 27 22 19 17 15 15 15 14 14 14 15 14 12 11 10 9 8 5 4 5 7 8 9 9 9 10 10 12 14 16 15 14 15 16 15 15 14 13 14 16 17 17 17 20 23 25 25 25 25 25 26 27 28 27 27 28 29 29 28 27 26 25 24 21 20 20 19 20 20 19 19 21
44 42 39 37 36 35 33 32 30 27 23 25 28 27 23 19 15 12 12 12 11 11 11 12 11 9 9 9 10 10 7 5 5 5 5 6 6 6 6 7 8 10 11 12 14 15 15 14 13 13 12 12 12 13 15 17 18 20 22 23 24 24 25 26 27 27 26 26 27 29 31 31 30 26 25 24 21 20 19 19 19 21 21 20 20
41 39 37 35 34 33 32 31 29 25 24 25 28 26 23 20 16 12 10 10 10 8 8 8 9 8 7 9 10 8 3 3 6 5 5 6 7 7 7 10 11 11 12 13 13 14 15 14 12 11 13 15 15 15 16 17 18 19 20 20 19 19 21 22 21 21 21 20 21 22 23 23 22 19 18 19 18 17 17 17 18 21 21 19 18
37 37 36 34 33 33 31 29 27 25 23 25 27 25 22 20 18 14 11 8 7 6 4 4 5 7 8 9 10 7 1 1 2 4 6 6 6 7 9 12 13 12 12 13 12 13 15 16 14 13 15 17 17 18 19 20 20 20 18 17 17 17 17 17 16 15 16 16 18 19 20 20 20 20 20 21 20 19 18 18 19 19 18 17 17
36 36 34 32 32 33 30 28 27 24 23 24 25 24 21 19 17 15 12 9 5 5 6 3 3 5 7 10 13 14 12 8 5 4 4 5 7 10 12 12 12 12 13 13 13 13 15 17 18 19 20 21 20 21 20 19 17 16 15 14 15 15 14 13 13 14 14 14 15 17 19 20 21 21 22 22 23 22 21 20 20 20 19 18 16
37 36 32 30 31 31 30 28 26 24 23 23 22 21 19 17 15 13 11 8 5 4 6 6 8 9 9 9 10 12 13 12 9 6 7 8 10 12 13 12 12 14 15 16 18 18 19 20 21 21 21 20 19 18 16 15 13 13 13 13 13 13 12 12 13 13 13 13 14 15 16 17 18 19 20 21 22 23 22 21 20 21 21 21 19
39 37 33 31 31 30 29 27 25 23 23 21 19 18 17 15 14 12 10 8 6 6 7 8 11 13 11 10 9 7 8 12 11 10 12 13 13 14 14 14 13 15 16 17 18 20 21 22 21 20 18 17 16 15 14 14 13 12 12 12 12 12 12 12 12 12 12 13 14 14 14 15 15 16 17 18 19 20 20 20 19 19 20 23 24
39 36 33 32 31 29 28 26 24 23 22 21 20 19 16 14 13 11 9 9 7 6 9 11 13 14 13 12 11 9 9 11 12 13 14 14 13 12 11 12 13 14 14 13 14 15 17 17 17 16 15 14 14 14 14 13 13 12 12 12 12 12 12 11 11 11 11 12 13 13 13 14 15 15 15 16 17 17 18 19 19 19 18 21 24
37 35 33 32 30 29 27 26 26 25 22 21 20 19 16 14 13 12 10 10 8 6 9 12 14 15 16 17 15 14 13 12 13 14 16 16 14 13 11 11 11 12 12 11 11 12 13 13 13 13 13 12 12 12 12 12 12 11 11 11 11 10 10 10 10 10 10 10 11 11 12 13 14 15 15 16 16 17 18 18 19 19 20 19 21
37 36 33 31 30 28 26 26 27 26 23 21 20 18 17 15 14 13 12 11 9 7 7 9 11 13 17 19 18 17 17 17 17 18 18 17 16 15 13 12 11 10 10 10 10 10 11 11 11 11 11 11 11 11 11 11 10 10 9 9 9 9 9 9 8 8 8 8 9 9 10 11 12 13 14 15 16 16 17 18 18 18 19 20 20
37 36 34 32 30 29 27 26 26 26 25 24 21 19 18 16 14 13 12 11 9 8 6 6 7 10 13 15 15 15 16 17 17 18 17 15 14 13 13 11 10 9 9 9 9 9 9 10 10 9 9 10 10 10 10 9 9 9 9 8 8 8 8 8 7 7 7 6 6 7 8 9 10 11 11 12 14 14 15 16 17 17 17 18 19
36 35 34 33 31 29 28 27 26 25 24 24 22 20 18 16 14 13 12 11 10 9 6 5 6 7 8 8 8 9 11 12 13 13 12 11 11 11 11 10 9 9 9 8 8 8 8 8 8 8 8 9 9 9 9 9 9 8 8 8 8 8 7 7 6 6 5 5 4 4 5 6 7 8 9 10 11 12 13 13 14 15 16 16 17
35 34 33 33 31 30 29 27 26 25 23 22 21 21 19 17 15 14 12 11 10 9 8 7 7 6 6 4 4 5 7 9 9 9 10 10 10 9 9 9 9 8 8 8 8 8 7 7 8 8 8 8 9 8 9 9 8 8 8 8 7 7 6 6 6 5 5 4 3 3 3 3 4 5 6 7 8 9 10 11 12 13 14 15 16
35 33 32 32 30 29 28 27 26 25 23 22 21 20 19 18 16 15 13 11 10 9 7 7 7 7 6 5 5 6 7 7 7 7 8 8 8 8 8 8 8 8 8 8 8 8 8 8 8 8 8 8 8 8 9 9 8 8 8 8 7 7 6 6 6 5 5 4 4 3 2 2 2 3 3 4 5 6 7 8 10 10 11 12 13
35 34 33 32 31 29 28 27 27 26 25 23 21 20 18 18 17 15 13 12 10 8 7 7 8 8 7 5 5 6 7 6 6 5 5 5 6 7 7 8 8 8 9 9 9 9 9 9 8 8 8 9 8 9 9 9 9 9 8 8 7 7 7 6 6 6 5 5 4 4 3 3 3 3 3 3 4 4 5 5 6 7 9 10 11
34 33 33 32 31 30 29 28 27 27 26 24 23 21 20 19 17 16 14 12 11 9 7 7 7 7 7 6 5 6 6 6 5 5 5 5 6 7 7 7 8 8 9 9 9 9 10 10 10 9 9 9 9 9 9 9 9 9 9 8 8 8 8 8 7 7 7 7 6 6 5 5 4 4 4 3 3 3 4 4 4 5 6 6 8
33 32 31 31 30 30 29 28 27 26 25 24 23 22 21 20 18 17 16 14 12 10 8 8 8 7 7 6 6 6 6 6 7 8 8 8 8 8 8 8 8 8 9 9 9 10 10 10 10 10 10 10 10 10 10 10 10 10 10 10 9 9 9 9 8 8 8 8 8 8 7 7 6 6 5 5 4 4 4 4 3 3 4 4 5
33 32 31 30 29 29 28 28 28 27 26 25 24 23 22 20 19 18 17 15 13 11 10 9 8 8 7 7 7 7 7 7 8 9 9 8 8 9 9 9 9 9 9 9 10 10 10 10 10 10 10 11 11 11 11 11 11 11 11 11 11 11 10 10 10 10 10 9 9 9 9 9 8 7 7 6 6 5 5 5 4 4 3 3 3
33 32 31 30 30 29 28 28 28 27 27 26 25 23 22 21 20 19 18 17 15 14 12 11 10 9 9 8 8 8 8 9 9 10 10 9 9 9 9 9 9 9 10 10 10 11 11 11 11 11 11 11 11 11 11 12 11 11 12 11 11 12 12 12 11 11 11 11 11 10 10 10 10 9 8 8 7 7 6 6 5 5 4 4 3
33 32 31 30 30 29 28 28 27 27 27 26 25 24 23 22 21 20 19 18 16 15 14 13 12 11 11 10 9 9 9 9 10 10 11 11 11 10 10 10 10 10 10 10 11 11 11 11 11 11 11 12 12 12 12 12 12 12 12 12 12 12 12 12 12 12 12 12 12 11 11 11 11 10 10 9 9 8 8 7 7 7 6 5 5
32 31 31 30 30 29 28 28 27 26 26 26 25 25 24 23 22 21 20 18 17 16 15 14 14 13 12 12 11 10 10 10 10 11 11 12 12 11 11 11 11 11 11 11 11 11 12 12 12 12 12 12 12 12 12 12 12 12 12 12 12 12 12 12 12 12 12 12 12 12 11 11 11 11 11 10 10 10 9 9 8 8 8 7 7
31 31 30 30 29 29 28 28 27 27 26 25 25 25 24 24 23 22 20 19 18 17 16 15 14 13 12 12 12 12 11 11 11 11 11 12 12 12 11 11 11 11 11 11 11 12 12 12 12 13 13 13 13 13 13 13 13 13 13 13 13 13 12 12 12 12 12 12 12 12 12 11 11 11 11 11 11 11 10 10 10 9 9 8 8
Wind_Direction
316 315 313 310 308 308 308 312 320 325 325 326 325 324 317 304 294 288 284 278 272 266 259 255 256 260 263 264 262 258 256 255 252 247 241 237 236 235 235 238 241 244 246 246 245 244 243 244 246 247 246 244 245 248 250 255 259 260 258 256 255 255 251 252 262 271 274 271 268 261 254 259 263 253 242 233 217 221 238 225 220 229 229 227 229
314 312 311 308 306 305 304 306 315 322 326 329 329 326 319 308 296 289 284 279 272 265 259 255 256 259 263 264 263 259 257 256 252 245 238 233 233 235 237 238 240 240 240 240 241 244 244 242 240 239 239 240 242 245 247 250 256 258 254 248 250 256 255 253 261 270 273 273 274 270 262 262 261 252 249 248 225 222 241 240 229 226 227 225 224
313 311 308 307 304 301 301 304 311 319 324 329 330 328 322 310 296 288 285 279 272 264 258 254 254 257 262 264 263 260 258 257 253 244 237 234 235 239 241 242 242 240 241 241 239 238 239 238 237 234 233 237 241 244 244 243 244 247 246 240 239 247 251 251 256 264 271 273 273 272 267 262 261 257 251 244 238 239 238 241 241 233 229 227 226
313 312 310 308 304 299 300 305 309 316 323 329 329 327 323 312 297 288 285 279 270 263 257 254 253 256 261 263 263 262 260 258 255 248 240 235 236 240 241 242 245 245 244 243 239 234 231 232 236 235 231 233 239 243 245 246 247 245 244 241 238 242 245 247 252 258 266 272 270 271 270 264 262 262 256 247 247 260 249 249 252 244 238 237 234
314 313 312 311 308 303 301 306 309 315 324 330 329 325 320 312 298 289 285 279 270 262 257 253 252 255 261 264 265 264 262 259 256 252 247 241 240 241 238 240 245 245 243 241 238 233 228 230 234 233 230 231 236 241 245 250 252 246 241 242 244 245 243 245 250 255 260 267 269 271 273 269 263 262 260 253 248 261 264 259 259 251 247 247 243
314 314 313 313 311 306 302 305 310 315 324 331 331 326 319 310 299 290 285 279 270 262 256 253 252 256 262 266 266 264 262 259 255 255 254 247 241 239 238 240 242 240 240 241 237 229 226 229 233 232 230 231 234 239 244 248 247 241 239 243 248 249 249 250 251 253 258 264 270 271 274 275 268 263 265 259 251 253 262 267 271 265 258 256 254
315 315 315 315 312 305 302 305 309 315 324 330 333 330 322 311 300 292 285 278 271 262 257 253 252 257 263 266 266 264 263 260 257 258 256 246 235 236 239 239 239 239 239 238 235 230 228 230 235 234 230 230 233 237 241 239 235 236 242 248 252 254 257 261 262 263 263 263 268 268 268 273 273 266 267 265 255 249 249 261 276 274 267 266 267
318 318 318 317 313 308 309 310 309 313 322 329 333 333 326 314 301 292 285 278 271 264 258 254 253 256 262 265 266 264 263 262 259 258 252 240 234 237 238 237 239 242 241 238 235 237 236 235 237 235 229 228 231 232 231 228 230 237 245 252 257 260 263 267 267 267 265 261 266 268 266 268 271 267 261 261 254 242 232 248 285 278 275 279 280
321 322 321 319 316 315 314 312 309 310 319 328 334 333 327 316 303 293 286 279 272 266 260 256 253 255 261 265 266 266 264 262 260 254 247 239 235 235 237 240 244 245 244 242 240 242 241 239 238 234 227 225 225 222 222 226 233 240 245 251 257 260 263 265 267 268 264 258 260 264 265 263 264 265 257 252 254 242 230 244 271 264 262 261 262
325 326 323 322 321 319 315 310 310 307 312 326 333 333 326 317 305 294 287 279 272 266 261 257 253 254 260 266 268 268 266 262 259 253 247 245 242 241 243 245 248 249 248 247 247 246 244 241 237 231 225 223 219 215 220 228 234 240 244 249 253 257 261 264 264 265 261 255 256 258 260 258 255 257 255 251 254 243 233 241 250 245 244 246 245
324 322 319 320 322 319 314 312 310 305 308 321 331 333 326 316 306 295 286 278 271 266 262 258 255 256 262 268 270 269 266 264 261 256 250 247 247 251 253 251 249 251 250 248 249 248 244 241 236 228 222 220 216 214 222 230 234 239 243 247 251 253 258 260 262 266 263 256 256 254 253 254 251 251 252 250 250 241 234 240 247 242 241 248 246
319 318 319 320 320 317 314 313 308 304 311 320 328 332 327 315 305 296 285 277 272 267 264 261 257 258 263 270 271 269 266 266 263 259 254 248 243 250 259 260 253 249 248 247 247 245 243 241 236 226 220 218 216 216 224 231 234 240 244 249 255 257 257 258 258 263 268 268 268 264 256 252 250 248 245 241 243 242 238 238 243 244 242 247 250
319 319 319 318 317 316 315 312 306 307 315 319 323 328 327 316 306 297 286 279 272 267 265 262 259 260 264 270 272 269 267 266 262 260 259 253 240 239 251 260 260 255 251 248 245 242 239 238 235 226 219 217 216 216 224 230 232 239 244 244 247 250 256 263 265 263 268 274 277 278 274 267 264 262 254 243 238 235 234 233 235 241 242 240 241
319 318 318 319 320 320 316 311 308 311 315 317 318 323 324 317 306 297 286 278 272 268 266 263 260 261 266 271 272 269 267 265 262 259 257 253 243 234 239 249 257 259 257 251 245 241 237 233 231 225 218 215 213 215 223 228 229 236 241 238 237 238 242 251 261 269 274 276 277 282 284 278 275 278 274 262 250 238 232 229 226 232 238 234 236
322 323 325 324 322 319 314 311 312 313 314 315 316 318 320 315 305 296 285 276 273 270 267 263 261 262 268 272 271 269 268 266 263 259 255 249 242 236 235 240 246 254 256 253 245 239 236 233 229 224 215 209 210 215 222 224 228 240 243 235 233 236 237 241 248 258 266 273 280 286 288 285 283 283 278 272 268 253 241 236 234 238 247 252 255
327 325 321 316 313 312 312 313 313 313 312 313 311 312 314 310 302 295 284 275 273 270 265 262 261 263 269 272 271 269 268 265 261 258 256 249 240 234 235 236 237 243 250 251 246 238 235 232 228 221 211 205 207 215 223 224 227 241 241 232 230 240 253 257 253 253 258 267 279 289 291 290 290 288 279 269 272 271 257 248 245 246 253 260 263
323 319 316 314 312 312 312 311 311 311 310 311 310 308 308 305 299 292 282 273 271 267 263 262 262 265 270 272 271 270 268 264 260 257 254 247 237 232 234 235 233 233 236 240 240 236 232 228 224 217 208 205 206 211 220 224 228 235 238 237 239 247 261 269 266 262 260 262 270 279 285 289 292 294 290 273 269 274 268 259 253 249 253 258 260
320 319 316 314 313 314 315 314 315 315 312 311 311 307 305 305 299 290 281 274 269 265 263 263 264 266 270 271 271 272 268 264 261 258 253 244 233 228 231 234 232 231 232 232 232 232 230 226 224 217 209 207 209 212 217 222 230 237 236 237 247 254 261 266 265 262 259 256 256 259 264 269 273 278 281 279 274 269 265 266 260 249 249 253 256
317 316 316 317 318 321 322 321 319 318 314 312 311 305 304 307 300 286 279 272 266 263 262 264 265 268 271 271 272 271 268 266 263 259 254 242 228 225 228 230 230 230 230 231 235 238 236 230 225 219 211 208 211 217 218 219 227 239 244 248 257 260 257 255 256 258 259 259 258 259 261 261 258 258 262 265 266 262 262 269 266 250 247 249 250
319 320 322 325 326 328 328 323 319 318 315 313 310 304 305 308 300 284 277 270 265 262 261 263 266 269 271 273 274 271 268 267 265 260 252 238 224 220 225 228 227 227 226 227 231 236 237 234 228 219 215 215 216 219 219 218 223 235 247 256 263 266 264 258 259 262 262 257 254 257 262 263 258 252 249 249 250 248 250 256 259 256 254 253 250
325 326 328 330 330 330 331 328 324 321 317 313 309 306 307 307 296 282 275 269 265 263 262 264 268 270 273 275 274 272 269 269 266 259 248 234 219 215 224 227 223 222 224 224 226 228 229 231 227 218 216 219 219 218 219 221 224 233 245 255 262 269 272 268 265 265 262 255 249 248 250 255 258 255 249 246 243 237 235 239 245 251 252 252 254
329 330 332 334 334 333 333 332 327 324 321 314 310 310 310 305 291 279 274 269 266 264 263 265 268 271 275 276 274 272 271 270 267 256 241 230 215 209 220 227 221 219 222 223 227 229 225 221 219 217 215 216 216 217 220 224 229 234 242 252 258 262 264 265 263 264 266 265 261 256 253 253 256 256 254 253 249 242 237 235 238 242 245 247 251
332 334 336 337 336 334 334 332 329 329 324 314 313 315 311 301 290 281 275 270 267 267 267 268 270 272 275 277 276 275 273 270 265 253 237 228 215 207 214 224 221 219 222 223 225 226 219 212 212 212 212 213 216 221 226 231 239 244 247 251 253 253 254 257 258 257 260 265 266 265 261 256 255 255 254 254 254 253 251 248 246 246 247 247 249
336 336 337 337 336 335 334 333 332 332 323 315 318 321 311 302 294 282 276 271 268 269 269 270 272 275 277 278 277 277 275 269 262 249 234 227 217 207 208 218 222 221 220 219 221 222 220 218 216 214 214 218 223 229 234 239 244 247 247 248 248 247 247 248 249 246 245 251 259 265 267 264 262 259 255 250 250 253 255 255 254 253 254 254 255
337 337 338 338 337 337 338 338 336 330 318 315 323 323 310 303 297 283 278 275 269 269 270 271 275 278 280 280 279 277 274 267 260 247 230 224 218 209 207 212 218 221 224 226 227 225 222 221 220 220 224 228 233 236 236 235 236 238 238 238 239 239 239 238 236 233 231 237 246 253 258 261 263 266 266 260 254 251 247 244 246 249 253 254 253
338 338 338 338 340 342 342 338 332 324 315 317 326 325 310 303 298 286 280 277 272 271 271 272 278 281 281 281 280 276 270 263 255 239 220 211 206 203 207 212 214 218 224 227 224 219 217 219 223 225 228 228 228 228 228 228 232 234 235 236 237 240 242 241 240 239 240 243 246 246 247 251 256 262 266 259 251 248 244 241 241 243 244 247 249
338 338 339 341 344 344 340 334 328 323 315 316 325 325 314 304 298 289 283 279 275 275 275 276 281 283 281 282 278 269 263 256 241 225 210 197 190 196 207 210 210 210 207 201 200 204 210 219 223 223 226 228 229 230 230 231 234 236 236 237 240 243 246 246 245 243 240 239 238 235 231 227 230 241 246 243 243 248 250 249 250 248 246 247 248
339 339 341 342 342 341 337 332 327 322 315 314 322 325 317 305 300 293 287 282 278 279 280 282 284 282 279 277 270 259 253 239 219 217 212 202 201 207 211 211 211 210 205 199 201 207 210 220 226 228 231 236 237 236 234 234 236 238 239 240 241 242 244 244 244 242 240 239 240 239 234 226 219 219 221 225 236 246 247 246 250 255 256 255 252
340 341 341 341 341 340 337 332 328 322 316 316 322 325 318 307 301 294 288 284 282 283 284 284 282 279 270 259 242 233 240 235 220 215 214 213 215 218 219 219 220 222 222 222 226 227 227 233 237 238 239 240 239 239 238 238 239 239 239 239 240 242 244 245 246 246 246 247 249 250 248 244 238 234 231 232 237 246 247 246 251 257 257 253 252
341 342 342 341 341 339 333 329 327 322 317 318 323 325 322 313 305 297 290 286 282 281 282 280 277 270 256 235 206 187 190 219 231 226 223 228 227 213 207 213 221 225 228 229 229 234 237 237 237 237 237 235 236 237 238 238 240 242 242 241 242 245 247 248 248 248 248 247 247 247 247 248 248 247 247 247 247 247 245 242 246 252 250 245 248
341 342 343 341 340 337 331 327 326 323 320 323 328 329 326 321 314 303 294 289 283 279 278 273 266 259 245 216 189 182 189 204 218 231 240 240 230 215 214 231 236 231 229 223 219 226 234 237 238 240 236 230 229 230 231 234 240 247 250 249 247 247 248 249 249 249 248 247 245 245 246 248 248 248 247 245 241 237 234 234 238 245 248 249 251
343 344 344 340 336 334 332 330 328 325 324 328 332 333 329 326 323 315 303 294 288 286 282 262 238 217 202 188 176 171 185 209 209 227 254 249 238 237 239 236 228 219 219 221 223 231 239 238 236 238 238 236 237 238 241 247 252 256 258 255 251 246 244 243 245 247 248 246 244 243 244 243 239 234 230 228 227 225 226 228 232 238 245 249 250
347 347 344 338 334 334 335 332 330 328 326 329 334 335 331 327 323 318 314 307 286 262 253 255 225 191 195 210 205 198 236 339 243 253 265 254 234 223 221 223 223 223 228 232 231 235 238 233 228 233 243 249 252 254 256 259 260 259 256 250 243 241 240 241 242 243 242 240 237 236 235 233 229 226 224 225 227 228 225 222 223 229 237 244 246
354 350 344 337 334 337 338 335 331 330 329 330 334 336 332 329 324 318 318 321 296 211 182 200 238 207 211 232 238 242 253 259 255 251 242 214 197 200 208 223 236 243 244 240 233 233 239 241 244 251 258 261 261 260 259 258 254 249 243 236 234 236 238 238 237 236 234 233 231 231 232 233 233 233 233 233 234 235 232 228 227 228 229 233 238
357 351 344 340 339 340 342 339 333 332 333 335 337 337 335 333 330 325 322 321 300 225 197 213 221 210 207 221 238 245 238 220 207 208 214 215 221 228 236 249 257 256 252 246 242 246 253 257 260 262 262 260 256 252 249 245 240 237 234 232 233 236 237 237 237 237 235 234 232 232 233 234 235 236 236 235 235 235 235 235 234 232 228 227 231
357 349 344 343 341 341 343 342 339 339 342 346 347 345 343 339 334 328 323 315 291 249 239 237 221 212 217 229 230 215 187 183 191 209 225 237 251 259 261 263 264 263 261 255 251 252 256 259 261 259 255 251 247 242 239 238 235 234 233 232 232 235 238 241 243 244 243 240 237 236 234 233 233 232 232 232 233 235 237 238 236 232 228 227 228
355 350 347 344 343 342 344 347 349 350 351 353 354 351 348 345 339 332 323 318 303 256 241 240 228 220 225 228 218 198 184 190 207 225 241 259 275 278 270 263 262 265 267 261 254 252 252 254 254 250 246 243 240 236 236 236 236 235 234 234 236 238 240 242 245 246 245 243 241 240 237 234 232 231 232 234 236 237 239 239 237 236 234 231 227
356 353 351 347 345 345 345 349 354 355 353 354 356 354 352 351 348 342 333 327 318 282 252 246 238 230 229 228 224 222 224 231 240 250 260 270 274 273 273 273 268 264 262 258 253 251 250 249 246 243 240 237 233 230 230 230 231 232 232 233 236 237 238 242 244 244 242 241 240 240 238 236 235 234 234 235 237 237 238 239 239 239 240 239 234
358 356 355 352 351 349 348 351 355 356 356 357 358 357 356 355 352 347 341 334 327 311 276 259 251 243 238 238 238 240 243 249 257 263 267 267 266 267 272 274 268 258 253 251 248 246 245 242 238 235 233 229 225 224 224 222 222 224 226 228 230 233 235 237 238 237 238 239 240 241 239 238 237 235 234 234 235 236 237 237 238 239 239 240 239
359 358 356 355 354 353 353 354 355 357 358 358 358 357 356 354 352 348 344 338 331 324 307 280 267 258 252 252 252 249 248 249 254 260 264 264 262 261 262 262 259 250 245 244 240 236 236 234 229 227 225 222 220 219 217 216 215 215 214 216 219 221 224 226 226 227 229 231 234 237 237 236 235 233 232 231 232 235 237 237 237 238 238 238 239
360 358 357 357 355 353 354 354 354 355 356 355 357 358 356 354 353 351 347 343 336 329 323 309 290 275 269 267 262 255 252 249 249 255 259 257 254 254 253 251 248 243 241 239 234 230 227 223 220 218 216 214 213 212 210 210 210 206 206 208 210 211 212 212 213 216 218 218 221 223 225 230 231 229 228 228 228 231 233 235 235 236 236 237 238
360 356 355 358 357 354 352 352 352 353 355 355 358 359 357 357 356 353 349 346 340 333 328 322 310 297 286 274 255 251 254 253 252 255 256 253 252 252 247 244 243 241 240 237 232 229 225 219 216 215 211 210 210 208 208 209 207 204 203 202 201 203 206 204 205 207 206 206 206 203 207 216 222 224 226 224 222 224 227 229 233 235 235 236 237
1 357 355 357 357 356 354 353 351 352 354 356 357 357 357 358 358 355 351 347 342 336 330 322 313 307 300 281 255 250 260 267 267 261 255 253 252 246 242 244 246 244 242 240 236 233 229 224 220 216 213 213 213 212 212 213 212 209 208 205 202 204 206 206 206 208 206 204 202 197 196 206 211 213 217 216 216 219 221 223 227 231 232 234 236
2 360 358 358 357 357 357 356 354 354 355 355 355 356 357 358 357 354 352 349 343 339 334 323 314 310 308 296 272 262 270 276 267 251 249 252 250 247 247 250 250 248 248 246 242 239 236 233 229 226 222 220 220 219 220 221 221 219 218 216 213 213 213 214 215 216 216 216 213 206 204 207 208 208 208 206 208 210 210 212 218 223 227 231 233
2 1 1 360 358 358 357 356 356 357 356 355 355 356 357 357 356 354 352 349 344 339 334 327 321 316 312 304 288 275 274 271 257 253 263 269 264 262 260 257 255 255 254 250 247 246 244 241 238 236 233 231 229 229 228 229 230 231 230 230 229 228 227 225 225 224 225 227 227 223 221 218 215 213 214 214 212 208 204 202 203 208 215 223 228
2 1 2 1 0 0 359 358 358 359 359 358 357 356 357 357 357 356 353 350 344 338 332 325 322 318 314 307 296 284 274 266 260 264 272 275 274 273 270 265 263 262 259 256 254 251 248 246 245 243 242 240 238 237 237 236 236 236 236 237 238 239 237 234 232 230 230 230 231 231 230 227 224 222 220 220 220 217 212 207 202 202 206 213 221
2 2 2 2 2 2 2 2 1 1 1 1 1 0 359 358 358 357 355 352 348 342 336 328 321 316 310 303 294 286 280 274 272 275 278 278 278 276 273 271 269 265 261 261 259 254 252 251 249 246 246 246 244 243 243 242 242 241 240 241 242 242 242 241 239 236 234 233 232 232 231 231 231 229 226 225 227 226 224 222 219 213 209 210 216
2 2 3 3 3 3 4 4 3 3 2 1 3 3 2 1 1 359 356 355 352 348 341 334 327 320 314 305 294 288 283 280 281 283 282 280 279 276 274 273 271 266 263 261 258 256 256 254 252 251 250 248 247 247 246 245 245 244 241 241 241 240 241 241 241 240 238 236 234 233 232 232 233 232 231 231 230 230 231 232 232 233 232 228 227
2 3 3 3 3 4 4 4 4 4 3 2 2 2 2 3 3 1 359 358 356 352 347 341 333 326 319 311 301 293 286 281 281 282 283 283 282 279 276 273 270 267 264 261 258 257 255 253 252 253 251 248 247 248 247 247 248 247 244 242 240 238 239 239 240 240 240 239 237 236 234 234 234 234 234 234 234 234 235 235 236 238 240 239 241
2 3 4 4 4 4 3 4 4 4 4 3 2 2 1 1 1 0 360 359 357 355 352 348 342 334 326 318 310 303 295 288 284 282 283 284 284 282 278 275 272 268 265 262 259 257 256 254 252 251 250 249 249 247 247 247 248 249 249 248 244 241 240 239 239 240 241 241 241 240 238 236 236 235 235 236 236 237 237 238 239 241 242 242 244
1 2 3 4 5 4 3 4 4 4 4 4 3 2 1 0 360 359 358 356 355 354 352 349 346 341 335 327 320 313 306 300 293 289 286 285 284 284 282 279 275 272 269 265 261 258 255 254 253 251 250 251 249 248 248 250 250 249 251 252 250 248 246 244 242 241 241 241 243 243 242 242 241 240 239 239 238 237 239 240 240 241 243 243 244